TimeCDT,TemperatureF,Dew PointF,Humidity,Sea Level PressureIn,VisibilityMPH,Wind Direction,Wind SpeedMPH,Gust SpeedMPH,PrecipitationIn,Events,Conditions,WindDirDegrees,DateUTC
12:53 AM,42.1,39.0,89,29.75,9.0,NW,9.2,-,0.00,,Overcast,310,2013-11-02 05:53:00
1:53 AM,42.1,39.0,89,29.76,9.0,WNW,5.8,-,0.01,,Overcast,300,2013-11-02 06:53:00
2:53 AM,42.1,39.0,89,29.78,10.0,NW,5.8,-,N/A,,Overcast,310,2013-11-02 07:53:00
3:17 AM,42.8,39.2,87,29.76,10.0,NW,8.1,-,N/A,,Overcast,320,2013-11-02 08:17:00
3:45 AM,42.8,39.2,87,29.77,9.0,North,5.8,-,N/A,,Overcast,10,2013-11-02 08:45:00
3:53 AM,42.1,39.0,89,29.79,10.0,North,4.6,-,N/A,,Overcast,360,2013-11-02 08:53:00
4:00 AM,42.8,39.2,87,29.77,10.0,NNW,4.6,-,N/A,,Overcast,340,2013-11-02 09:00:00
4:53 AM,42.1,39.0,89,29.81,10.0,NNW,8.1,-,0.01,Rain,Light Rain,330,2013-11-02 09:53:00
5:11 AM,42.8,39.2,87,29.80,10.0,NNW,6.9,-,0.00,Rain,Light Rain,330,2013-11-02 10:11:00
5:19 AM,42.8,39.2,87,29.81,10.0,NNW,5.8,-,0.00,Rain,Light Rain,340,2013-11-02 10:19:00
5:45 AM,42.8,37.4,81,29.82,10.0,North,8.1,-,0.01,Rain,Light Rain,350,2013-11-02 10:45:00
5:53 AM,42.1,37.9,85,29.84,10.0,NNW,8.1,-,0.01,Rain,Light Rain,340,2013-11-02 10:53:00
6:34 AM,41.0,37.4,87,29.83,10.0,North,6.9,-,0.00,,Overcast,350,2013-11-02 11:34:00
6:53 AM,41.0,37.0,86,29.86,10.0,NNW,6.9,-,0.00,Rain,Light Rain,330,2013-11-02 11:53:00
7:25 AM,41.0,37.4,87,29.86,10.0,NNW,5.8,-,0.00,,Overcast,340,2013-11-02 12:25:00
7:34 AM,41.0,37.4,87,29.86,10.0,NNW,8.1,-,0.00,,Overcast,330,2013-11-02 12:34:00
7:53 AM,41.0,37.0,86,29.88,10.0,NNW,6.9,-,0.00,,Overcast,330,2013-11-02 12:53:00
8:53 AM,41.0,37.0,86,29.92,10.0,NNW,6.9,-,N/A,,Overcast,340,2013-11-02 13:53:00
9:53 AM,42.1,36.0,79,29.94,10.0,NNW,10.4,-,N/A,,Overcast,340,2013-11-02 14:53:00
10:53 AM,43.0,34.0,71,29.96,10.0,North,10.4,-,N/A,,Overcast,360,2013-11-02 15:53:00
11:53 AM,43.0,33.1,68,29.98,10.0,NNE,8.1,-,N/A,,Overcast,20,2013-11-02 16:53:00
12:26 PM,44.6,33.8,66,29.96,10.0,North,9.2,-,N/A,,Overcast,360,2013-11-02 17:26:00
12:38 PM,44.6,33.8,66,29.97,10.0,North,8.1,-,N/A,,Overcast,350,2013-11-02 17:38:00
12:53 PM,44.1,34.0,68,29.99,10.0,NNW,5.8,-,N/A,,Overcast,340,2013-11-02 17:53:00
1:53 PM,43.0,33.1,68,30.00,10.0,NNW,8.1,-,N/A,,Overcast,340,2013-11-02 18:53:00
2:53 PM,43.0,34.0,71,30.01,10.0,NNW,4.6,-,N/A,,Overcast,330,2013-11-02 19:53:00
3:53 PM,43.0,34.0,71,30.04,10.0,North,4.6,-,N/A,,Overcast,10,2013-11-02 20:53:00
4:53 PM,43.0,34.0,71,30.06,10.0,Calm,Calm,-,N/A,,Overcast,0,2013-11-02 21:53:00
5:21 PM,42.8,33.8,70,30.05,10.0,North,8.1,-,0.00,Rain,Light Rain,360,2013-11-02 22:21:00
5:53 PM,39.9,35.1,83,30.08,10.0,North,3.5,-,0.04,,Overcast,10,2013-11-02 22:53:00
6:14 PM,39.2,35.6,87,30.07,10.0,Calm,Calm,-,N/A,,Overcast,0,2013-11-02 23:14:00
6:53 PM,39.9,35.1,83,30.10,10.0,Calm,Calm,-,N/A,,Overcast,0,2013-11-02 23:53:00
7:53 PM,39.0,36.0,89,30.12,10.0,West,3.5,-,N/A,,Overcast,270,2013-11-03 00:53:00
8:53 PM,39.0,36.0,89,30.13,10.0,Calm,Calm,-,N/A,,Overcast,0,2013-11-03 01:53:00
9:53 PM,39.0,36.0,89,30.15,10.0,Calm,Calm,-,N/A,,Overcast,0,2013-11-03 02:53:00
10:53 PM,37.0,34.0,89,30.16,8.0,Calm,Calm,-,N/A,,Mostly Cloudy,0,2013-11-03 03:53:00
11:53 PM,36.0,34.0,93,30.17,5.0,Calm,Calm,-,N/A,,Overcast,0,2013-11-03 04:53:00